Japanese version Home page |
Updated on March 3, 2018 |
|
Orbital ElementsEpoch 2015 May 18.0 TT = JDT 2457160.5 T 2015 May 7.36591 TT MPCW q 4.2257262 (2000.0) P Q n 0.05763693 Peri. 334.05977 +0.79523746 -0.60159362 a 6.6374634 Node 63.13044 +0.56993686 +0.69933502 e 0.3633522 Incl. 4.84761 +0.20680754 +0.38602545 P 17.10 From 339 observations 1997 Oct. 5-2016 Apr. 2, mean residual 0".5.
|
Magnitudes Graphm1 = 10.0 + 5 log d + 10.0 log r
|
The orbital elements are published on M.P.E.C. 2018-D91.
|